| time (UTC) | temp C | wind direction | speed KPH | gust KPH | rain 1hr cm | rain 24hr cm | rain mn cm | humidity % | barometer mb |
| 20260506100017 | 1 | 0.0 | 0.0 | 0.00 | 0.00 | 0.00 | 67 | 1013.5 | |
| 20260506095016 | 1 | 0.0 | 1.6 | 0.00 | 0.00 | 0.00 | 67 | 1013.5 | |
| 20260506094016 | 1 | 0.0 | 4.8 | 0.00 | 0.00 | 0.00 | 68 | 1013.5 | |
| 20260506093027 | 1 | 0.0 | 3.2 | 0.00 | 0.00 | 0.00 | 68 | 1013.5 | |
| 20260506092036 | 1 | 0.0 | 0.0 | 0.00 | 0.00 | 0.00 | 67 | 1013.5 | |
| 20260506091037 | 1 | 0.0 | 4.8 | 0.00 | 0.00 | 0.00 | 68 | 1013.5 | |
| 20260506090016 | 1 | 0.0 | 4.8 | 0.00 | 0.00 | 0.00 | 68 | 1013.4 | |
| 20260506085036 | 1 | 0.0 | 0.0 | 0.00 | 0.00 | 0.00 | 68 | 1013.2 | |
| 20260506084016 | 1 | 0.0 | 0.0 | 0.00 | 0.00 | 0.00 | 67 | 1013.1 | |
| 20260506083057 | 1 | 0.0 | 0.0 | 0.00 | 0.00 | 0.00 | 66 | 1013.0 | |
| 20260506082016 | 1 | 0.0 | 0.0 | 0.00 | 0.00 | 0.00 | 65 | 1013.2 | |
| 20260506081017 | 1 | 0.0 | 0.0 | 0.00 | 0.00 | 0.00 | 64 | 1013.3 | |
| 20260506073017 | 2 | 0.0 | 3.2 | 0.00 | 0.00 | 0.00 | 62 | 1012.8 | |
| 20260506072016 | 2 | 0.0 | 1.6 | 0.00 | 0.00 | 0.00 | 61 | 1012.8 | |
| 20260506071021 | 2 | 315 | 1.6 | 4.8 | 0.00 | 0.00 | 0.00 | 61 | 1012.8 |
| 20260506062016 | 3 | 0.0 | 3.2 | 0.00 | 0.00 | 0.00 | 58 | 1012.8 | |
| 20260506061056 | 3 | 0.0 | 3.2 | 0.00 | 0.00 | 0.00 | 58 | 1013.0 | |
| 20260506051018 | 3 | 315 | 1.6 | 12.9 | 0.00 | 0.00 | 0.00 | 56 | 1012.5 |
| 20260506045021 | 4 | 315 | 1.6 | 6.4 | 0.00 | 0.00 | 0.00 | 55 | 1012.2 |
| 20260506044016 | 4 | 315 | 3.2 | 11.3 | 0.00 | 0.00 | 0.00 | 54 | 1012.2 |
| 20260506043017 | 4 | 315 | 1.6 | 6.4 | 0.00 | 0.00 | 0.00 | 54 | 1012.2 |
| 20260506042036 | 4 | 315 | 1.6 | 8.0 | 0.00 | 0.00 | 0.00 | 54 | 1012.2 |
| 20260506041016 | 5 | 315 | 1.6 | 6.4 | 0.00 | 0.00 | 0.00 | 53 | 1012.2 |
| 20260506040037 | 5 | 315 | 1.6 | 6.4 | 0.00 | 0.00 | 0.00 | 53 | 1012.2 |
| 20260506035016 | 5 | 0.0 | 4.8 | 0.00 | 0.00 | 0.00 | 52 | 1012.2 | |
| 20260506034037 | 5 | 315 | 1.6 | 6.4 | 0.00 | 0.00 | 0.00 | 52 | 1012.1 |
| 20260506033016 | 5 | 315 | 3.2 | 12.9 | 0.00 | 0.00 | 0.00 | 52 | 1011.9 |
| 20260506032016 | 5 | 338 | 1.6 | 8.0 | 0.00 | 0.00 | 0.00 | 53 | 1012.0 |
| 20260506031016 | 5 | 293 | 1.6 | 8.0 | 0.00 | 0.00 | 0.00 | 53 | 1011.9 |
| 20260506030016 | 6 | 293 | 1.6 | 6.4 | 0.00 | 0.00 | 0.00 | 52 | 1011.8 |
| 20260506025016 | 6 | 315 | 1.6 | 8.0 | 0.00 | 0.00 | 0.00 | 51 | 1011.5 |
| 20260506024016 | 6 | 293 | 1.6 | 6.4 | 0.00 | 0.00 | 0.00 | 50 | 1011.4 |
| 20260506023016 | 6 | 315 | 3.2 | 16.1 | 0.00 | 0.00 | 0.00 | 49 | 1011.2 |
| 20260506022016 | 6 | 315 | 1.6 | 6.4 | 0.00 | 0.00 | 0.00 | 49 | 1011.1 |
| 20260506021016 | 6 | 315 | 1.6 | 8.0 | 0.00 | 0.00 | 0.00 | 47 | 1010.9 |
| 20260506020036 | 7 | 315 | 1.6 | 12.9 | 0.00 | 0.00 | 0.00 | 47 | 1010.6 |
| 20260506015016 | 7 | 293 | 3.2 | 14.5 | 0.00 | 0.00 | 0.00 | 46 | 1010.5 |
| 20260506014016 | 7 | 293 | 3.2 | 16.1 | 0.00 | 0.00 | 0.00 | 45 | 1010.5 |
| 20260506013038 | 7 | 270 | 1.6 | 9.7 | 0.00 | 0.00 | 0.00 | 45 | 1010.3 |
| 20260506012039 | 7 | 293 | 6.4 | 19.3 | 0.00 | 0.00 | 0.00 | 44 | 1010.1 |
| 20260506011038 | 7 | 293 | 1.6 | 14.5 | 0.00 | 0.00 | 0.00 | 45 | 1010.1 |
| 20260506010018 | 8 | 293 | 3.2 | 11.3 | 0.00 | 0.00 | 0.00 | 44 | 1010.0 |
| 20260506005018 | 8 | 315 | 3.2 | 14.5 | 0.00 | 0.00 | 0.00 | 43 | 1010.0 |
| 20260506004018 | 8 | 315 | 1.6 | 11.3 | 0.00 | 0.00 | 0.00 | 43 | 1009.8 |
| 20260506003018 | 8 | 315 | 4.8 | 22.5 | 0.00 | 0.00 | 0.00 | 41 | 1009.7 |
| 20260506002018 | 9 | 293 | 3.2 | 19.3 | 0.00 | 0.00 | 0.00 | 40 | 1009.6 |
| 20260506001038 | 8 | 293 | 3.2 | 14.5 | 0.00 | 0.00 | 0.00 | 42 | 1009.5 |
| 20260506000018 | 8 | 315 | 3.2 | 14.5 | 0.00 | 0.00 | 0.00 | 41 | 1009.4 |
| 20260505235018 | 8 | 315 | 3.2 | 12.9 | 0.00 | 0.00 | 0.00 | 41 | 1009.4 |
| 20260505234018 | 8 | 270 | 3.2 | 20.9 | 0.00 | 0.00 | 0.00 | 41 | 1009.3 |
| 20260505233017 | 8 | 270 | 3.2 | 20.9 | 0.00 | 0.00 | 0.00 | 40 | 1009.3 |
| 20260505232018 | 8 | 270 | 3.2 | 11.3 | 0.00 | 0.00 | 0.00 | 40 | 1009.3 |
| 20260505231038 | 9 | 270 | 3.2 | 16.1 | 0.00 | 0.00 | 0.00 | 40 | 1009.2 |
| 20260505230018 | 9 | 315 | 4.8 | 14.5 | 0.00 | 0.00 | 0.00 | 40 | 1009.2 |
| 20260505225018 | 9 | 293 | 3.2 | 14.5 | 0.00 | 0.00 | 0.00 | 40 | 1009.1 |
| 20260505224018 | 9 | 270 | 8.0 | 22.5 | 0.00 | 0.00 | 0.00 | 39 | 1009.2 |
| 20260505223018 | 10 | 270 | 4.8 | 17.7 | 0.00 | 0.00 | 0.00 | 40 | 1009.1 |
| 20260505222018 | 10 | 270 | 8.0 | 30.6 | 0.00 | 0.00 | 0.00 | 39 | 1009.1 |
| 20260505221017 | 10 | 293 | 4.8 | 14.5 | 0.00 | 0.00 | 0.00 | 40 | 1009.2 |
| 20260505220038 | 9 | 293 | 4.8 | 16.1 | 0.00 | 0.00 | 0.00 | 41 | 1009.3 |
| 20260505215018 | 9 | 315 | 4.8 | 17.7 | 0.00 | 0.00 | 0.00 | 41 | 1009.3 |
| 20260505214017 | 9 | 270 | 1.6 | 12.9 | 0.00 | 0.00 | 0.00 | 41 | 1009.4 |
| 20260505213039 | 9 | 270 | 3.2 | 16.1 | 0.00 | 0.00 | 0.00 | 41 | 1009.5 |
| 20260505212017 | 9 | 293 | 3.2 | 14.5 | 0.00 | 0.00 | 0.00 | 41 | 1009.3 |
| 20260505211058 | 9 | 270 | 4.8 | 19.3 | 0.00 | 0.00 | 0.00 | 40 | 1009.4 |
| 20260505210037 | 9 | 270 | 4.8 | 24.1 | 0.00 | 0.00 | 0.00 | 40 | 1009.5 |
| 20260505205017 | 9 | 293 | 4.8 | 17.7 | 0.00 | 0.00 | 0.00 | 40 | 1009.5 |
| 20260505204018 | 10 | 315 | 3.2 | 9.7 | 0.00 | 0.00 | 0.00 | 41 | 1009.4 |
| 20260505203018 | 9 | 270 | 8.0 | 24.1 | 0.00 | 0.00 | 0.00 | 40 | 1009.6 |
| 20260505202018 | 9 | 270 | 3.2 | 16.1 | 0.00 | 0.00 | 0.00 | 41 | 1009.7 |
| 20260505201024 | 10 | 293 | 3.2 | 11.3 | 0.00 | 0.00 | 0.00 | 41 | 1009.6 |
| 20260505200017 | 9 | 315 | 6.4 | 22.5 | 0.00 | 0.00 | 0.00 | 40 | 1009.6 |
| 20260505195017 | 9 | 270 | 6.4 | 19.3 | 0.00 | 0.00 | 0.00 | 40 | 1009.6 |
| 20260505194037 | 10 | 315 | 3.2 | 22.5 | 0.00 | 0.00 | 0.00 | 39 | 1009.4 |
| 20260505193017 | 10 | 293 | 1.6 | 6.4 | 0.00 | 0.00 | 0.00 | 40 | 1009.6 |
| 20260505192017 | 9 | 270 | 6.4 | 22.5 | 0.00 | 0.00 | 0.00 | 40 | 1009.5 |
| 20260505191037 | 9 | 270 | 4.8 | 19.3 | 0.00 | 0.00 | 0.00 | 40 | 1009.6 |
| 20260505190017 | 9 | 270 | 6.4 | 22.5 | 0.00 | 0.00 | 0.00 | 40 | 1009.6 |
| 20260505185017 | 9 | 270 | 4.8 | 24.1 | 0.00 | 0.00 | 0.00 | 40 | 1009.6 |
| 20260505184017 | 9 | 270 | 4.8 | 14.5 | 0.00 | 0.00 | 0.00 | 40 | 1009.5 |
| 20260505183017 | 9 | 270 | 1.6 | 12.9 | 0.00 | 0.00 | 0.00 | 42 | 1009.5 |
| 20260505182037 | 8 | 315 | 3.2 | 12.9 | 0.00 | 0.00 | 0.00 | 41 | 1009.6 |
| 20260505181017 | 8 | 293 | 3.2 | 20.9 | 0.00 | 0.00 | 0.00 | 41 | 1009.6 |
| 20260505180017 | 8 | 293 | 6.4 | 19.3 | 0.00 | 0.00 | 0.00 | 40 | 1009.6 |
| 20260505175018 | 8 | 315 | 3.2 | 14.5 | 0.00 | 0.00 | 0.00 | 41 | 1009.5 |
| 20260505174018 | 8 | 315 | 4.8 | 16.1 | 0.00 | 0.00 | 0.00 | 40 | 1009.6 |
| 20260505173017 | 8 | 270 | 4.8 | 12.9 | 0.00 | 0.00 | 0.00 | 42 | 1009.7 |
| 20260505172037 | 8 | 270 | 9.7 | 27.4 | 0.00 | 0.00 | 0.00 | 40 | 1009.7 |
| 20260505171017 | 8 | 270 | 6.4 | 25.7 | 0.00 | 0.00 | 0.00 | 41 | 1009.7 |
| 20260505170017 | 8 | 270 | 6.4 | 19.3 | 0.00 | 0.00 | 0.00 | 40 | 1009.6 |
| 20260505165017 | 8 | 270 | 3.2 | 14.5 | 0.00 | 0.00 | 0.00 | 42 | 1009.7 |
| 20260505164017 | 8 | 270 | 4.8 | 19.3 | 0.00 | 0.00 | 0.00 | 41 | 1009.6 |
| 20260505163017 | 8 | 315 | 3.2 | 16.1 | 0.00 | 0.00 | 0.00 | 42 | 1009.6 |
| 20260505162017 | 8 | 293 | 1.6 | 11.3 | 0.00 | 0.00 | 0.00 | 42 | 1009.6 |
| 20260505161018 | 7 | 270 | 4.8 | 14.5 | 0.00 | 0.00 | 0.00 | 43 | 1009.6 |
| 20260505153017 | 7 | 293 | 6.4 | 17.7 | 0.00 | 0.00 | 0.00 | 45 | 1009.7 |
| 20260505152017 | 7 | 270 | 4.8 | 14.5 | 0.00 | 0.00 | 0.00 | 44 | 1009.6 |
| 20260505151027 | 7 | 270 | 4.8 | 20.9 | 0.00 | 0.00 | 0.00 | 46 | 1009.5 |
| 20260505125017 | 4 | 293 | 6.4 | 14.5 | 0.00 | 0.00 | 0.00 | 51 | 1008.4 |
| 20260505124016 | 4 | 338 | 4.8 | 17.7 | 0.00 | 0.00 | 0.00 | 53 | 1008.2 |
| 20260505123017 | 3 | 315 | 4.8 | 16.1 | 0.00 | 0.00 | 0.00 | 55 | 1008.0 |
| 20260505122036 | 3 | 338 | 1.6 | 9.7 | 0.00 | 0.00 | 0.00 | 58 | 1008.0 |
| 20260505121016 | 3 | 293 | 4.8 | 16.1 | 0.00 | 0.00 | 0.00 | 60 | 1007.8 |
| 20260505120017 | 3 | 315 | 3.2 | 14.5 | 0.00 | 0.00 | 0.00 | 62 | 1007.7 |
| 20260505115016 | 3 | 315 | 3.2 | 8.0 | 0.00 | 0.00 | 0.00 | 63 | 1007.5 |
| 20260505114016 | 3 | 315 | 3.2 | 12.9 | 0.00 | 0.00 | 0.00 | 64 | 1007.2 |
| 20260505113016 | 2 | 293 | 1.6 | 11.3 | 0.00 | 0.00 | 0.00 | 66 | 1007.1 |
| 20260505112016 | 3 | 293 | 3.2 | 11.3 | 0.00 | 0.00 | 0.00 | 66 | 1007.0 |
| 20260505111036 | 3 | 293 | 4.8 | 16.1 | 0.00 | 0.00 | 0.00 | 67 | 1007.0 |
| 20260505102041 | 3 | 293 | 1.6 | 6.4 | 0.00 | 0.00 | 0.00 | 66 | 1006.9 |
| 20260505101016 | 3 | 293 | 3.2 | 11.3 | 0.00 | 0.00 | 0.00 | 66 | 1006.7 |